Погода в Шевченкове

Украина / Николаевская область     46°51′36″N   32°11′46″E
темп.,
°C
ветер,
м/с
пор.,
м/с
влажн.,
%
обл.,
%
осадки,
мм/ч
давл.,
гПа
погр.,
м
2 июля, сб
сб200:00+21св47490 0.0 1016100
03:00+20св465611 0.0 101795
06:00+19св48591 0.0 1017161
09:00+25св56445 0.0 1018859
12:00+27св66352 0.0 10192030
15:00+29св66220 0.0 10192388
18:00+28ссв66190 0.0 10192044
21:00+21св48330 0.0 1019109
3 июля, вс
вс300:00+18всв46400 0.0 102087
03:00+16св34490 0.0 102048
06:00+16св33570 0.0 102046
09:00+23всв33410 0.0 1020670
12:00+27св232734 0.0 10201696
15:00+29ссз232186 0.0 10182246
18:00+29зсз23234 0.0 10171907
21:00+22сз12420 0.0 101731
4 июля, пн
пн400:00+20в22425 0.0 101816
03:00+19ссз22455 0.0 101814
06:00+19ссв224679 0.0 101829
09:00+26всв22345 0.0 1018481
12:00+30с12240 0.0 10172067
15:00+32з23210 0.0 10162559
18:00+31з54270 0.0 1015897
21:00+23юз46573 0.0 1016105
5 июля, вт
вт500:00+22з34610 0.0 101653
03:00+21сз334829 0.0 101725
06:00+22ссз22441 0.0 101726
09:00+29ссв33301 0.0 1017530
12:00+33зюз022558 0.0 10162412
15:00+35з44223 0.0 10142966
18:00+33з4526100 0.0 1014804
21:00+26ююз475270 0.0 1014147
6 июля, ср
ср600:00+24зюз23500 0.0 101524
03:00+23ююз22540 0.0 101616
06:00+22ююв22501 0.0 101634
09:00+30ю34365 0.0 1015716
12:00+33ююз33260 0.0 10152285
15:00+33зюз65263 0.0 10141809
18:00+30юз672940 0.0 1014462
21:00+25ю410410 0.0 1014200